Location: Newark
(40.7360°N, 74.1730°W)
Time: 19:15:15
(UTC-05:00)

ISS - All Passes

Search period start: 22 February 2017 00:00
Search period end: 04 March 2017 00:00
Orbit: 399 x 408 km, 51.6° (Epoch: 23 February)

Date Brightness Start Highest point End Pass type
(mag) Time Alt. Az. Time Alt. Az. Time Alt. Az.
22 Feb - 08:59:59 10° SW 09:03:15 69° SE 09:06:33 10° ENE daylight
22 Feb - 10:37:22 10° WNW 10:40:00 21° NNW 10:42:37 10° NNE daylight
22 Feb - 12:15:54 10° NNW 12:17:24 12° N 12:18:55 10° NNE daylight
22 Feb - 13:52:20 10° NNW 13:54:51 20° NNE 13:57:21 10° ENE daylight
22 Feb - 15:28:21 10° NW 15:31:39 82° SW 15:34:54 10° SE daylight
23 Feb - 08:07:49 10° SSW 08:10:50 34° SE 08:13:52 10° ENE daylight
23 Feb - 09:44:20 10° W 09:47:19 31° NNW 09:50:18 10° NE daylight
23 Feb - 11:22:52 10° NW 11:24:34 13° N 11:26:15 10° NNE daylight
23 Feb - 13:00:00 10° NNW 13:02:05 16° NNE 13:04:10 10° NE daylight
23 Feb - 14:35:53 10° NW 14:39:08 53° NNE 14:42:20 10° ESE daylight
23 Feb - 16:13:06 10° W 16:15:18 17° SW 16:17:30 10° S daylight
24 Feb - 07:16:11 10° S 07:18:29 18° SE 07:20:49 10° E daylight
24 Feb - 08:51:28 10° WSW 08:54:41 51° NNW 08:57:56 10° NE daylight
24 Feb - 10:29:41 10° NW 10:31:45 15° NNW 10:33:49 10° NNE daylight
24 Feb - 12:07:33 10° NNW 12:09:16 13° N 12:10:58 10° NE daylight
24 Feb - 13:43:30 10° NW 13:46:31 31° NNE 13:49:30 10° E daylight
24 Feb - 15:19:58 10° WNW 15:22:57 32° SW 15:25:55 10° SSE daylight
25 Feb - 07:58:51 10° SW 08:02:09 86° SE 08:05:27 10° NE daylight
25 Feb - 09:36:28 10° WNW 09:38:57 19° NNW 09:41:27 10° NNE daylight
25 Feb - 11:14:53 10° NNW 11:16:24 12° N 11:17:55 10° NNE daylight
25 Feb - 12:51:09 10° NNW 12:53:48 22° NNE 12:56:26 10° ENE daylight
25 Feb - 14:27:15 10° WNW 14:30:32 65° SW 14:33:45 10° SE daylight
26 Feb - 07:06:32 10° SSW 07:09:39 42° SE 07:12:48 10° ENE daylight
26 Feb - 08:43:20 10° W 08:46:13 27° NNW 08:49:06 10° NE daylight
26 Feb - 10:21:56 10° NW 10:23:32 13° N 10:25:08 10° NNE daylight
26 Feb - 11:58:47 10° NNW 12:01:01 17° NNE 12:03:14 10° ENE daylight
26 Feb - 13:34:42 10° NW 13:37:59 64° NE 13:41:14 10° ESE daylight
26 Feb - 15:12:19 10° W 15:14:05 14° SW 15:15:49 10° SSW daylight
27 Feb - 06:14:38 10° S 06:17:14 22° SE 06:19:52 10° E daylight
27 Feb - 07:50:23 10° WSW 07:53:32 42° NNW 07:56:42 10° NE daylight
27 Feb - 09:28:43 10° NW 09:30:39 15° NNW 09:32:36 10° NNE daylight
27 Feb - 11:06:21 10° NNW 11:08:10 14° N 11:10:00 10° NE daylight
27 Feb - 12:42:15 10° NW 12:45:21 36° NNE 12:48:26 10° E daylight
27 Feb - 14:18:55 10° WNW 14:21:43 26° SW 14:24:31 10° SSE daylight
28 Feb - 05:23:45 10° SSE 05:24:54 11° SE 05:26:03 10° ESE visible
28 Feb - 06:57:38 10° WSW 07:00:55 77° NW 07:04:13 10° NE daylight
28 Feb - 08:35:27 10° WNW 08:37:49 18° NNW 08:40:10 10° NNE daylight
28 Feb - 10:13:44 10° NNW 10:15:17 13° N 10:16:50 10° NNE daylight
28 Feb - 11:49:52 10° NW 11:52:38 24° NNE 11:55:24 10° E daylight
28 Feb - 13:26:03 10° WNW 13:29:16 52° SW 13:32:27 10° SE daylight
01 Mar - 06:05:10 10° SW 06:08:22 53° SE 06:11:36 10° ENE daylight
01 Mar - 07:42:15 10° W 07:45:01 24° NNW 07:47:47 10° NE daylight
01 Mar - 09:20:50 10° NNW 09:22:22 13° N 09:23:55 10° NNE daylight
01 Mar - 10:57:28 10° NNW 10:59:50 18° NNE 11:02:12 10° ENE daylight
01 Mar - 12:33:25 10° NW 12:36:43 79° NE 12:40:00 10° ESE daylight
01 Mar - 14:11:43 10° WSW 14:12:44 11° SW 14:13:43 10° SSW daylight
02 Mar - 05:13:04 10° SSW 05:15:54 27° SE 05:18:44 10° ENE visible
02 Mar - 06:49:11 10° W 06:52:16 36° NNW 06:55:22 10° NE daylight
02 Mar - 08:27:38 10° NW 08:29:27 14° N 08:31:16 10° NNE daylight
02 Mar - 10:05:01 10° NNW 10:06:58 15° NNE 10:08:55 10° NE daylight
02 Mar - 11:40:54 10° NW 11:44:05 43° NNE 11:47:14 10° ESE daylight
02 Mar - 13:17:47 10° W 13:20:21 21° SW 13:22:54 10° S daylight
03 Mar - 04:21:40 10° SSE 04:23:30 14° SE 04:25:19 10° E visible
03 Mar - 05:56:20 10° WSW 05:59:36 63° NNW 06:02:52 10° NE visible
03 Mar - 07:34:20 10° WNW 07:36:33 17° NNW 07:38:47 10° NNE daylight
03 Mar - 09:12:26 10° NNW 09:14:03 13° N 09:15:39 10° NE daylight
03 Mar - 10:48:27 10° NW 10:51:21 27° NNE 10:54:14 10° E daylight
03 Mar - 12:24:46 10° WNW 12:27:53 41° SW 12:31:00 10° SSE daylight
